Time,TemperatureF,DewpointF,PressureIn,WindDirection,WindDirectionDegrees,WindSpeedMPH,WindSpeedGustMPH,Humidity,HourlyPrecipIn,Conditions,Clouds,dailyrainin,SolarRadiationWatts/m^2,SoftwareType,DateUTC
2013-07-11 00:02:00,63.0,60.0,-100.00,West,265,0.0,0.0,91,0.00,,,0.00,0.000000,,2013-07-11 05:02:00,
2013-07-11 00:32:00,62.0,60.0,-100.00,WNW,293,0.0,0.0,94,0.00,,,0.00,0.000000,,2013-07-11 05:32:00,
2013-07-11 00:43:00,62.0,60.0,-100.00,WNW,293,0.0,0.0,94,0.00,,,0.00,0.000000,,2013-07-11 05:43:00,
2013-07-11 00:52:00,62.0,60.0,-100.00,WNW,293,0.0,0.0,94,0.00,,,0.00,0.000000,,2013-07-11 05:52:00,
2013-07-11 01:01:00,62.0,60.0,-100.00,WNW,293,0.0,0.0,94,0.00,,,0.00,0.000000,,2013-07-11 06:01:00,
2013-07-11 01:32:00,61.0,60.0,-100.00,West,270,2.0,3.0,95,0.00,,,0.00,0.000000,,2013-07-11 06:32:00,
2013-07-11 01:43:00,61.0,60.0,-100.00,West,270,2.0,3.0,95,0.00,,,0.00,0.000000,,2013-07-11 06:43:00,
2013-07-11 01:53:00,61.0,60.0,-100.00,West,270,2.0,3.0,95,0.00,,,0.00,0.000000,,2013-07-11 06:53:00,
2013-07-11 02:02:00,61.0,60.0,-100.00,West,270,2.0,3.0,95,0.00,,,0.00,0.000000,,2013-07-11 07:02:00,
2013-07-11 02:32:00,60.0,60.0,-100.00,NW,306,1.0,4.0,99,0.00,,,0.00,0.000000,,2013-07-11 07:32:00,
2013-07-11 02:45:00,60.0,60.0,-100.00,NW,306,1.0,4.0,99,0.00,,,0.00,0.000000,,2013-07-11 07:45:00,
2013-07-11 02:53:00,60.0,60.0,-100.00,NW,306,1.0,4.0,99,0.00,,,0.00,0.000000,,2013-07-11 07:53:00,
2013-07-11 03:02:00,60.0,60.0,-100.00,NW,306,1.0,4.0,99,0.00,,,0.00,0.000000,,2013-07-11 08:02:00,
2013-07-11 03:34:00,60.0,59.0,-100.00,ENE,70,0.0,1.0,98,0.00,,,0.00,0.000000,,2013-07-11 08:34:00,
2013-07-11 03:43:00,60.0,59.0,-100.00,ENE,70,0.0,1.0,98,0.00,,,0.00,0.000000,,2013-07-11 08:43:00,
2013-07-11 03:53:00,60.0,59.0,-100.00,ENE,70,0.0,1.0,98,0.00,,,0.00,0.000000,,2013-07-11 08:53:00,
2013-07-11 04:03:00,60.0,59.0,-100.00,ENE,70,0.0,1.0,98,0.00,,,0.00,0.000000,,2013-07-11 09:03:00,
2013-07-11 04:33:00,59.0,59.0,-100.00,North,10,1.0,3.0,100,0.00,,,0.00,0.000000,,2013-07-11 09:33:00,
2013-07-11 04:43:00,59.0,59.0,-100.00,North,10,1.0,3.0,100,0.00,,,0.00,0.000000,,2013-07-11 09:43:00,
2013-07-11 04:53:00,59.0,59.0,-100.00,North,10,1.0,3.0,100,0.00,,,0.00,0.000000,,2013-07-11 09:53:00,
2013-07-11 05:01:00,59.0,59.0,-100.00,North,10,1.0,3.0,100,0.00,,,0.00,0.000000,,2013-07-11 10:01:00,
2013-07-11 05:33:00,57.0,57.0,-100.00,WNW,293,1.0,4.0,100,0.00,,,0.00,0.000000,,2013-07-11 10:33:00,
2013-07-11 05:43:00,57.0,57.0,-100.00,WNW,293,1.0,4.0,100,0.00,,,0.00,0.000000,,2013-07-11 10:43:00,
2013-07-11 05:52:00,57.0,57.0,-100.00,WNW,293,1.0,4.0,100,0.00,,,0.00,0.000000,,2013-07-11 10:52:00,
2013-07-11 06:02:00,57.0,57.0,-100.00,WNW,293,1.0,4.0,100,0.00,,,0.00,0.000000,,2013-07-11 11:02:00,
2013-07-11 06:33:00,58.0,58.0,-100.00,ENE,66,0.0,4.0,100,0.00,,,-99.99,2.000000,,2013-07-11 11:33:00,
2013-07-11 06:43:00,58.0,58.0,-100.00,ENE,66,0.0,4.0,100,0.00,,,-99.99,2.000000,,2013-07-11 11:43:00,
2013-07-11 06:53:00,58.0,58.0,-100.00,ENE,66,0.0,4.0,100,0.00,,,-99.99,2.000000,,2013-07-11 11:53:00,
2013-07-11 07:01:00,58.0,58.0,-100.00,ENE,66,0.0,4.0,100,0.00,,,-99.99,2.000000,,2013-07-11 12:01:00,
2013-07-11 07:33:00,63.0,61.0,-100.00,ENE,63,2.0,4.0,93,0.00,,,-99.99,56.000000,,2013-07-11 12:33:00,
2013-07-11 07:43:00,63.0,61.0,-100.00,ENE,63,2.0,4.0,93,0.00,,,-99.99,56.000000,,2013-07-11 12:43:00,
2013-07-11 07:57:00,63.0,61.0,-100.00,ENE,63,2.0,4.0,93,0.00,,,-99.99,56.000000,,2013-07-11 12:57:00,
2013-07-11 08:02:00,63.0,61.0,-100.00,ENE,63,2.0,4.0,93,0.00,,,-99.99,56.000000,,2013-07-11 13:02:00,
2013-07-11 08:35:00,69.0,62.0,-100.00,ENE,78,4.0,6.0,79,0.00,,,0.00,197.000000,,2013-07-11 13:35:00,
2013-07-11 08:47:00,69.0,62.0,-100.00,ENE,78,4.0,6.0,79,0.00,,,0.00,197.000000,,2013-07-11 13:47:00,
2013-07-11 08:54:00,69.0,62.0,-100.00,ENE,78,4.0,6.0,79,0.00,,,0.00,197.000000,,2013-07-11 13:54:00,
2013-07-11 09:05:00,69.0,62.0,-100.00,ENE,78,4.0,6.0,79,0.00,,,0.00,197.000000,,2013-07-11 14:05:00,
2013-07-11 09:36:00,74.0,62.0,-100.00,East,88,5.0,7.0,66,0.00,,,0.00,361.000000,,2013-07-11 14:36:00,
2013-07-11 09:47:00,74.0,62.0,-100.00,East,88,5.0,7.0,66,0.00,,,0.00,361.000000,,2013-07-11 14:47:00,
2013-07-11 09:55:00,74.0,62.0,-100.00,East,88,5.0,7.0,66,0.00,,,0.00,361.000000,,2013-07-11 14:55:00,
2013-07-11 10:04:00,74.0,62.0,-100.00,East,88,5.0,7.0,66,0.00,,,0.00,361.000000,,2013-07-11 15:04:00,
2013-07-11 10:38:00,78.0,59.0,-100.00,East,87,6.0,10.0,52,0.00,,,0.00,532.000000,,2013-07-11 15:38:00,
2013-07-11 10:48:00,78.0,59.0,-100.00,East,87,6.0,10.0,52,0.00,,,0.00,532.000000,,2013-07-11 15:48:00,
2013-07-11 10:58:00,78.0,59.0,-100.00,East,87,6.0,10.0,52,0.00,,,0.00,532.000000,,2013-07-11 15:58:00,
2013-07-11 11:05:00,78.0,59.0,-100.00,East,87,6.0,10.0,52,0.00,,,0.00,532.000000,,2013-07-11 16:05:00,
2013-07-11 11:36:00,80.0,57.0,-100.00,ESE,116,5.0,10.0,46,0.00,,,0.00,680.000000,,2013-07-11 16:36:00,
2013-07-11 11:49:00,80.0,57.0,-100.00,ESE,116,5.0,10.0,46,0.00,,,0.00,680.000000,,2013-07-11 16:49:00,
2013-07-11 11:56:00,80.0,57.0,-100.00,ESE,116,5.0,10.0,46,0.00,,,0.00,680.000000,,2013-07-11 16:56:00,
2013-07-11 12:03:00,80.0,57.0,-100.00,ESE,116,5.0,10.0,46,0.00,,,0.00,680.000000,,2013-07-11 17:03:00,
2013-07-11 12:40:00,82.0,60.0,-100.00,SE,144,5.0,10.0,48,0.00,,,-99.99,782.000000,,2013-07-11 17:40:00,
2013-07-11 12:49:00,82.0,60.0,-100.00,SE,144,5.0,10.0,48,0.00,,,-99.99,782.000000,,2013-07-11 17:49:00,
2013-07-11 12:56:00,82.0,60.0,-100.00,SE,144,5.0,10.0,48,0.00,,,-99.99,782.000000,,2013-07-11 17:56:00,
2013-07-11 13:05:00,82.0,60.0,-100.00,SE,144,5.0,10.0,48,0.00,,,-99.99,782.000000,,2013-07-11 18:05:00,
2013-07-11 13:36:00,82.0,56.0,-100.00,ENE,62,6.0,11.0,41,0.00,,,0.00,862.000000,,2013-07-11 18:36:00,
2013-07-11 13:49:00,82.0,56.0,-100.00,ENE,62,6.0,11.0,41,0.00,,,0.00,862.000000,,2013-07-11 18:49:00,
2013-07-11 13:56:00,82.0,56.0,-100.00,ENE,62,6.0,11.0,41,0.00,,,0.00,862.000000,,2013-07-11 18:56:00,
2013-07-11 14:04:00,82.0,56.0,-100.00,ENE,62,6.0,11.0,41,0.00,,,0.00,862.000000,,2013-07-11 19:04:00,
2013-07-11 14:39:00,83.0,59.0,-100.00,East,92,6.0,12.0,44,0.00,,,0.00,885.000000,,2013-07-11 19:39:00,
2013-07-11 14:47:00,83.0,59.0,-100.00,East,92,6.0,12.0,44,0.00,,,0.00,885.000000,,2013-07-11 19:47:00,
2013-07-11 14:57:00,83.0,59.0,-100.00,East,92,6.0,12.0,44,0.00,,,0.00,885.000000,,2013-07-11 19:57:00,
2013-07-11 15:06:00,83.0,59.0,-100.00,East,92,6.0,12.0,44,0.00,,,0.00,885.000000,,2013-07-11 20:06:00,
2013-07-11 15:40:00,84.0,56.0,-100.00,SE,134,5.0,10.0,39,0.00,,,0.00,854.000000,,2013-07-11 20:40:00,
2013-07-11 15:49:00,84.0,56.0,-100.00,SE,134,5.0,10.0,39,0.00,,,0.00,854.000000,,2013-07-11 20:49:00,
2013-07-11 15:56:00,84.0,56.0,-100.00,SE,134,5.0,10.0,39,0.00,,,0.00,854.000000,,2013-07-11 20:56:00,
2013-07-11 16:05:00,84.0,56.0,-100.00,SE,134,5.0,10.0,39,0.00,,,0.00,854.000000,,2013-07-11 21:05:00,
2013-07-11 16:36:00,85.0,61.0,-100.00,ESE,108,4.0,10.0,45,0.00,,,0.00,773.000000,,2013-07-11 21:36:00,
2013-07-11 16:46:00,85.0,61.0,-100.00,ESE,108,4.0,10.0,45,0.00,,,0.00,773.000000,,2013-07-11 21:46:00,
2013-07-11 16:58:00,85.0,61.0,-100.00,ESE,108,4.0,10.0,45,0.00,,,0.00,773.000000,,2013-07-11 21:58:00,
2013-07-11 17:05:00,85.0,61.0,-100.00,ESE,108,4.0,10.0,45,0.00,,,0.00,773.000000,,2013-07-11 22:05:00,
2013-07-11 17:36:00,84.0,58.0,-100.00,East,94,5.0,10.0,42,0.00,,,-99.99,646.000000,,2013-07-11 22:36:00,
2013-07-11 17:49:00,84.0,58.0,-100.00,East,94,5.0,10.0,42,0.00,,,-99.99,646.000000,,2013-07-11 22:49:00,
2013-07-11 17:55:00,84.0,58.0,-100.00,East,94,5.0,10.0,42,0.00,,,-99.99,646.000000,,2013-07-11 22:55:00,
2013-07-11 18:06:00,84.0,58.0,-100.00,East,94,5.0,10.0,42,0.00,,,-99.99,646.000000,,2013-07-11 23:06:00,
2013-07-11 18:47:00,84.0,58.0,-100.00,ESE,102,5.0,11.0,41,0.00,,,0.00,479.000000,,2013-07-11 23:47:00,
2013-07-11 18:59:00,84.0,58.0,-100.00,ESE,102,5.0,11.0,41,0.00,,,0.00,479.000000,,2013-07-11 23:59:00,
2013-07-11 19:05:00,84.0,58.0,-100.00,ESE,102,5.0,11.0,41,0.00,,,0.00,479.000000,,2013-07-12 00:05:00,
2013-07-11 19:46:00,81.0,59.0,-100.00,ESE,112,5.0,10.0,48,0.00,,,0.00,304.000000,,2013-07-12 00:46:00,
2013-07-11 19:58:00,81.0,59.0,-100.00,ESE,112,5.0,10.0,48,0.00,,,0.00,304.000000,,2013-07-12 00:58:00,
2013-07-11 20:04:00,81.0,59.0,-100.00,ESE,112,5.0,10.0,48,0.00,,,0.00,304.000000,,2013-07-12 01:04:00,
2013-07-11 20:38:00,76.0,60.0,-100.00,East,100,4.0,10.0,57,0.00,,,0.00,129.000000,,2013-07-12 01:38:00,
2013-07-11 20:48:00,76.0,60.0,-100.00,East,100,4.0,10.0,57,0.00,,,0.00,129.000000,,2013-07-12 01:48:00,
2013-07-11 20:56:00,76.0,60.0,-100.00,East,100,4.0,10.0,57,0.00,,,0.00,129.000000,,2013-07-12 01:56:00,
2013-07-11 21:06:00,76.0,60.0,-100.00,East,100,4.0,10.0,57,0.00,,,0.00,129.000000,,2013-07-12 02:06:00,
2013-07-11 21:36:00,71.0,59.0,-100.00,East,98,3.0,6.0,66,0.00,,,0.00,10.000000,,2013-07-12 02:36:00,
2013-07-11 21:45:00,71.0,59.0,-100.00,East,98,3.0,6.0,66,0.00,,,0.00,10.000000,,2013-07-12 02:45:00,
2013-07-11 21:55:00,71.0,59.0,-100.00,East,98,3.0,6.0,66,0.00,,,0.00,10.000000,,2013-07-12 02:55:00,
2013-07-11 22:03:00,71.0,59.0,-100.00,East,98,3.0,6.0,66,0.00,,,0.00,10.000000,,2013-07-12 03:03:00,
2013-07-11 22:38:00,67.0,58.0,-100.00,East,94,3.0,6.0,72,0.00,,,-99.99,0.000000,,2013-07-12 03:38:00,
2013-07-11 22:56:00,67.0,58.0,-100.00,East,94,3.0,6.0,72,0.00,,,-99.99,0.000000,,2013-07-12 03:56:00,
2013-07-11 23:01:00,67.0,58.0,-100.00,East,94,3.0,6.0,72,0.00,,,-99.99,0.000000,,2013-07-12 04:01:00,
2013-07-11 23:32:00,65.0,57.0,-100.00,ESE,102,2.0,6.0,75,0.00,,,0.00,0.000000,,2013-07-12 04:32:00,
2013-07-11 23:43:00,65.0,57.0,-100.00,ESE,102,2.0,6.0,75,0.00,,,0.00,0.000000,,2013-07-12 04:43:00,
2013-07-11 23:53:00,65.0,57.0,-100.00,ESE,102,2.0,6.0,75,0.00,,,0.00,0.000000,,2013-07-12 04:53:00,